Terug naar catalogus

STARLING 3

ActiefCommunicatiePO
NORAD 57389·PAYLOAD·🇺🇸 United States

Gelanceerd Jul 18, 2023 vanaf Rocket Lab Launch Complex 1

Loading…

Volgende Passages (komende 24 uur)

TLE

VersSource: Space-Track

Epoch: Sep 14, 2026, 21:52 UTC

1 57389U 23100D   26257.91143212  .00005124  00000-0  29326-3 0  9990
2 57389  99.4998 300.6056 0005480 168.4967 191.6384 15.13271175173635

Volg STARLING 3 in realtime met AllMySat

Download on the App Store